EHI
0 0 0 0 0 0 0 0 0 0 0 0 0 0 0 0 0 0 0 0 0 0 0 0 0 0 0 0 0 0 0 0 0 0 0 0 0 0 0 0 0 0 0 0
0 0 0 0 0 0 0 0 0 0 0 0 0 0 0 0 0 0 0 0 0 0 0 0 0 0 0 0 0 0 0 0 0 0 0 0 0 0 0 0 0 0 0 0
0 0 0 0 0 0 0 0 0 0 0 0 0 0 0 0 0 0 0 0 0 0 0 0 0 0 0 0 0 0 0 0 0 0 0 0 0 0 0 0 0 0 0 0
0 0 0 0 0 0 0 0 0 0 0 0 0 0 0 0 0 0 0 0 0 0 0 0 0 0 0 0 0 0 0 0 0 0 0 0 0 0 0 0 0 0 0 0
0 0 0 0 0 0 0 0 0 0 0 0 0 0 0 0 0 0 0 0 0 0 0 0 0 0 0 0 0 0 0 0 0 0 0 0 0 0 0 0 0 0 0 0
0 0 0 0 0 0 0 0 0 0 0 0 0 0 0 0 0 0 0 0 0 0 0 0 0 0 0 0 0 0 0 0 0 0 0 0 0 0 0 0 0 0 0 0
0 0 0 0 0 0 0 0 0 0 0 0 0 0 0 0 0 0 0 0 0 0 0 0 0 0 0 0 0 0 0 0 0 0 0 0 0 0 0 0 0 0 0 0
0 0 0 0 0 0 0 0 0 0 0 0 0 0 0 0 0 0 0 0 0 0 0 0 0 0 0 0 0 0 0 0 0 0 0 0 0 0 0 0 0 0 0 0
0 0 0 0 0 0 0 0 0 0 0 0 0 0 0 0 0 0 0 0 0 0 0 0 0 0 0 0 0 0 0 0 0 0 0 0 0 0 0 0 0 0 0 0
0 0 0 0 0 0 0 0 0 0 0 0 0 0 0 0 0 0 0 0 0 0 0 0 0 0 0 0 0 0 0 0 0 0 0 0 0 0 0 0 0 0 0 0
0 0 0 0 0 0 0 0 0 0 0 0 0 0 0 0 0 0 0 0 0 0 0 0 0 0 0 0 0 0 0 0 0 0 0 0 0 0 0 0 0 0 0 0
0 0 0 0 0 0 0 0 0 0 0 0 0 0 0 0 0 0 0 0 0 0 0 0 0 0 0 0 0 0 0 0 0 0 0 0 0 0 0 0 0 0 0 0
0 0 0 0 0 0 0 0 0 0 0 0 0 0 0 0 0 0 0 0 0 0 0 0 0 0 0 0 0 0 0 0 0 0 0 0 0 0 0 0 0 0 0 0
0 0 0 0 0 0 0 0 0 0 0 0 0 0 0 0 0 0 0 0 0 0 0 0 0 0 0 0 0 0 0 0 0 0 0 0 0 0 0 0 0 0 0 0
0 0 0 0 0 0 0 0 0 0 0 0 0 0 0 0 0 0 0 0 0 0 0 0 0 0 0 0 0 0 0 0 0 0 0 0 0 0 0 0 0 0 0 0
0 0 0 0 0 0 0 0 0 0 0 0 0 0 0 0 0 0 0 0 0 0 0 0 0 0 0 0 0 0 0 0 0 0 0 0 0 0 0 0 0 0 0 0
0 0 0 0 0 0 0 0 0 0 0 0 0 0 0 0 0 0 0 0 0 0 0 0 0 0 0 0 0 0 0 0 0 0 0 0 0 0 0 0 0 0 0 0
0 0 0 0 0 0 0 0 0 0 0 0 0 0 0 0 0 0 0 0 0 0 0 0 0 0 0 0 0 0 0 0 0 0 0 0 0 0 0 0 0 0 0 0
0 0 0 0 0 0 0 0 0 0 0 0 0 0 0 0 0 0 0 0 0 0 0 0 0 0 0 0 0 0 0 0 0 0 0 0 0 0 0 0 0 0 0 0
0 0 0 0 0 0 0 0 0 0 0 0 0 0 0 0 0 0 0 0 0 0 0 0 0 0 0 0 0 0 0 0 0 0 0 0 0 0 0 0 0 0 0 0
0 0 0 0 0 0 0 0 0 0 0 0 0 0 0 0 0 0 0 0 0 0 0 0 0 0 0 0 0 0 0 0 0 0 0 0 0 0 0 0 0 0 0 0
0 0 0 0 0 0 0 0 0 0 0 0 0 0 0 0 0 0 0 0 0 0 0 0 0 0 0 0 0 0 0 0 0 0 0 0 0 0 0 0 0 0 0 0
0 0 0 0 0 0 0 0 0 0 0 0 0 0 0 0 0 0 0 0 0 0 0 0 0 0 0 0 0 0 0 0 0 0 0 0 0 0 0 0 0 0 0 0
0 0 0 0 0 0 0 0 0 0 0 0 0 0 0 0 0 0 0 0 0 0 0 0 0 0 0 0 0 0 0 0 0 0 0 0 0 0 0 0 0 0 0 0
0 0 0 0 0 0 0 0 0 0 0 0 0 0 0 0 0 0 0 0 0 0 0 0 0 0 0 0 0 0 0 0 0 0 0 0 0 0 0 0 0 0 0 0
0 0 0 0 0 0 0 0 0 0 0 0 0 0 0 0 0 0 0 0 0 0 0 0 0 0 0 0 0 0 0 0 0 0 0 0 0 0 0 0 0 0 0 0
Wind_Speed
1 3 4 4 4 2 1 4 6 3 0 4 8 9 7 5 6 7 6 5 5 4 3 1 1 1 1 2 2 3 3 3 2 1 1 1 1 1 2 2 3 4 4 4
3 3 1 1 2 3 3 5 5 3 0 3 6 10 7 5 7 7 7 6 6 4 3 2 1 1 1 1 1 2 2 2 2 1 1 1 1 1 1 2 3 4 4 4
4 2 1 3 4 4 4 5 4 3 3 3 5 8 6 4 5 5 6 6 6 5 5 3 2 1 1 1 1 1 1 1 2 1 1 1 1 1 1 2 2 3 4 4
2 1 2 3 2 3 4 1 3 3 4 3 3 7 5 4 5 6 6 7 6 5 4 4 3 2 1 0 1 1 1 2 2 1 1 1 0 1 2 2 2 3 3 4
2 1 1 3 2 2 1 2 1 2 4 5 4 7 5 3 5 7 6 6 6 5 5 4 3 2 1 1 1 1 2 2 2 2 1 0 1 1 1 2 2 3 3 3
2 1 1 0 2 2 3 2 2 1 3 6 5 7 6 4 5 4 4 4 4 4 4 3 2 2 1 1 1 1 1 2 2 2 2 1 1 1 2 2 3 3 2 2
2 2 1 0 2 3 2 2 2 3 4 5 3 6 7 1 2 3 3 3 3 3 3 3 3 2 2 1 0 0 0 1 1 1 1 2 2 2 2 2 3 3 3 3
4 3 2 1 2 3 3 3 3 5 5 3 4 8 3 1 1 1 2 2 2 3 3 3 3 3 2 2 1 1 1 0 1 1 1 2 2 2 2 3 3 3 3 3
3 2 2 1 1 2 4 3 2 1 1 5 6 5 4 2 1 1 1 1 2 2 2 2 2 2 2 2 2 2 1 1 1 1 2 2 2 2 2 3 3 3 3 4
2 3 1 0 1 1 1 3 3 4 5 7 7 7 5 4 4 3 2 2 2 1 1 1 2 2 2 2 2 1 2 2 2 2 2 2 2 2 2 2 3 3 4 4
2 3 2 2 5 5 4 4 4 3 4 5 7 5 1 3 3 3 3 2 2 2 1 1 1 1 2 1 1 1 1 2 2 2 2 2 2 2 2 2 3 3 4 4
2 2 3 3 1 2 3 5 6 5 5 5 6 5 3 2 1 2 2 2 2 1 1 1 1 1 1 1 1 1 2 2 2 2 2 2 2 2 2 2 3 3 4 4
5 4 3 3 4 3 4 4 4 2 2 6 8 7 4 1 1 2 3 2 2 1 1 1 1 1 1 1 2 2 2 2 2 2 2 2 2 2 2 3 3 3 3 4
4 4 6 7 3 4 6 6 7 7 7 8 12 12 6 3 4 4 3 3 3 3 2 2 2 2 2 2 2 2 2 2 2 2 2 2 2 3 3 3 3 3 3 3
3 4 5 6 4 3 7 8 10 12 12 11 10 11 11 7 6 5 4 4 4 3 3 3 3 3 2 2 2 3 3 2 2 2 3 3 3 3 3 3 3 3 3 4
2 3 3 5 4 5 8 10 12 13 12 13 13 14 9 5 3 4 5 5 5 5 4 4 4 4 3 3 3 3 3 3 2 3 3 3 3 3 3 3 3 4 4 4
5 5 4 4 1 4 10 10 12 9 8 9 12 10 3 4 5 5 5 5 5 5 5 4 4 4 4 4 3 4 4 3 3 3 3 3 3 3 3 3 4 4 4 4
6 5 3 3 2 9 3 1 6 8 8 9 9 7 6 6 5 5 5 6 5 5 5 5 4 4 4 4 4 3 3 3 3 3 3 3 3 3 3 3 4 4 4 4
3 5 4 3 6 9 4 3 5 6 7 8 10 9 6 3 4 4 4 4 5 5 5 5 4 4 4 4 3 3 3 3 3 3 4 3 3 4 4 4 4 4 4 5
2 2 4 4 6 8 2 3 2 3 6 3 6 7 4 2 4 2 1 1 3 3 3 3 3 3 3 3 2 3 3 3 4 4 4 4 4 4 4 4 5 4 4 5
4 4 6 7 8 8 1 4 5 5 3 1 4 5 5 5 4 2 1 2 2 2 2 2 2 2 3 2 2 3 4 5 5 4 4 4 4 4 4 4 4 4 4 5
7 7 8 6 8 8 5 7 7 3 2 1 3 3 4 4 3 2 2 3 2 2 2 2 2 3 3 2 3 4 5 5 4 3 4 4 4 4 3 4 4 4 4 4
7 6 5 8 6 1 7 6 3 1 2 2 3 3 4 4 4 3 3 3 3 3 3 2 2 3 3 3 3 5 5 4 3 3 4 4 4 4 4 4 4 4 3 3
5 2 4 6 7 4 5 5 3 3 4 4 3 3 4 5 4 4 4 3 3 3 3 2 3 4 4 3 4 5 4 3 3 4 4 3 4 4 3 3 3 3 3 4
3 4 5 7 5 4 5 6 6 5 4 4 4 4 5 5 5 5 4 4 4 3 3 3 3 4 5 4 4 4 3 3 3 4 4 4 4 4 4 4 4 4 4 5
5 6 6 7 4 4 4 3 4 5 5 6 5 5 5 5 5 5 5 4 4 4 3 3 4 4 5 4 4 4 3 3 3 3 3 3 3 3 3 4 4 5 7 9
Wind_Direction
74 176 194 199 219 256 206 224 245 251 87 258 247 254 251 215 214 216 209 204 204 207 197 167 131 86 64 57 54 48 44 41 45 26 2 5 358 14 20 17 16 7 358 350
151 203 201 128 156 177 204 234 250 250 163 269 272 266 254 227 218 219 217 211 209 202 188 172 141 102 78 66 59 58 48 44 37 14 3 348 344 359 5 4 9 2 353 349
181 90 128 157 157 191 222 237 249 268 285 228 282 259 221 205 214 218 220 217 212 207 200 187 174 151 111 71 39 23 40 47 35 27 43 58 52 357 349 347 353 353 347 346
137 91 164 168 188 221 234 219 235 252 262 255 265 273 224 205 212 214 216 214 211 205 202 194 186 181 167 87 42 34 33 44 37 35 38 64 358 326 326 325 329 339 343 342
135 119 166 197 217 221 156 87 221 252 245 262 228 252 254 191 228 224 216 211 207 202 199 196 194 191 180 130 72 49 50 43 33 30 29 13 334 323 324 327 322 329 336 336
103 94 359 79 79 120 129 123 114 172 224 249 226 234 258 205 229 232 213 208 203 198 198 195 186 182 175 138 94 67 70 50 34 28 20 353 329 329 322 324 319 321 323 325
148 145 101 113 139 138 189 204 232 226 223 240 155 236 256 244 244 251 240 220 200 194 193 194 195 200 203 199 171 107 96 41 25 14 1 340 323 310 310 318 316 316 314 319
202 201 161 175 209 191 195 231 235 253 259 268 203 241 256 46 316 276 258 237 204 195 196 204 212 216 219 223 221 220 251 303 347 341 325 320 314 309 313 316 312 307 308 311
214 198 100 72 0 221 181 202 294 263 289 269 245 252 262 189 213 219 215 199 207 207 205 211 215 219 228 230 230 238 249 276 304 304 303 304 308 308 309 310 306 305 309 310
202 202 158 113 172 59 301 155 176 205 241 256 256 250 244 207 222 213 216 219 217 209 221 222 216 226 234 242 247 250 249 257 277 293 301 309 319 313 310 306 309 311 310 309
192 194 170 187 207 201 169 181 207 211 256 257 265 253 171 218 208 211 216 218 219 218 237 248 261 271 265 258 256 259 271 280 291 299 298 302 306 307 303 303 307 308 306 306
173 203 222 210 87 328 239 219 198 218 223 236 266 268 94 185 191 214 229 233 226 223 240 241 258 282 302 291 282 278 286 291 298 299 297 298 303 293 291 297 301 301 300 300
155 177 211 206 189 192 225 217 215 225 217 221 238 253 113 157 223 241 249 248 237 237 246 240 248 262 277 298 298 279 280 291 302 303 300 301 305 305 300 303 305 304 300 300
153 197 229 251 279 178 212 211 201 201 222 234 238 256 255 247 265 272 264 247 241 237 234 243 261 274 279 288 296 295 286 291 296 295 291 291 296 302 307 314 317 315 308 305
177 223 233 262 270 229 234 223 204 214 230 242 253 256 268 276 270 270 269 253 243 243 244 253 265 272 274 284 293 297 297 294 289 286 288 290 297 302 306 310 311 311 308 306
187 218 220 255 239 244 257 244 226 229 238 247 263 269 275 288 266 255 254 249 248 252 258 265 269 270 269 275 285 289 289 291 281 277 286 296 299 297 299 304 306 305 304 303
179 184 213 248 239 272 255 233 213 212 217 219 238 252 268 268 262 264 260 250 249 261 270 267 265 266 267 267 267 270 276 279 270 271 284 289 290 292 297 302 300 298 297 298
173 182 217 253 227 243 250 116 201 216 233 226 244 261 263 270 289 281 259 246 255 262 267 271 269 268 270 269 269 270 270 263 263 268 275 281 284 287 295 296 295 296 294 293
195 188 204 225 250 267 255 181 179 206 252 221 231 252 266 290 289 262 234 236 253 264 267 269 263 260 263 264 267 263 261 259 260 264 270 274 275 280 287 288 290 293 293 292
114 190 212 213 242 254 239 131 157 188 254 199 212 237 237 205 257 267 137 267 274 279 277 275 273 267 262 267 262 249 255 259 261 265 269 270 268 269 274 281 285 288 285 287
173 191 213 224 242 262 113 142 163 209 260 160 209 222 208 216 257 306 290 286 280 284 283 277 268 264 265 269 255 252 255 257 266 272 270 268 267 267 269 275 278 280 282 286
194 191 201 203 225 245 142 156 200 241 27 200 222 221 221 237 252 255 263 274 275 282 289 280 275 280 282 264 247 256 262 271 273 265 264 267 270 271 271 273 278 279 279 280
215 214 206 208 227 24 167 196 226 262 245 241 237 231 223 235 244 251 258 263 270 271 274 274 274 285 288 270 251 257 271 277 265 260 262 266 270 270 269 268 273 276 273 273
214 215 229 247 256 244 219 236 250 243 250 258 252 237 217 226 238 249 255 259 265 265 264 265 265 274 283 281 270 265 276 270 252 256 264 267 267 269 268 264 262 262 264 267
233 188 222 248 265 282 244 234 246 252 258 259 260 249 236 231 239 246 254 258 262 266 266 258 257 267 278 286 281 279 275 260 254 258 261 264 263 267 269 265 262 260 259 263
210 205 216 243 234 234 255 247 235 238 246 243 242 252 250 238 240 246 254 258 261 264 265 263 264 269 277 282 283 284 274 254 253 261 264 262 262 266 269 273 277 269 267 275